Regional Weather Roundup
Issued by NWS

Home | Current Version | Previous Version | Text Only | Print | Product List | Glossary Off
Versions: 1 2 3 4 5 6 7 8 9 10 11 12 13 14 15 16 17 18 19 20 21 22 23 24 25 26 27 28 29 30 31 32 33 34 35 36 37 38 39 40 41 42 43 44 45 46 47 48 49 50

000
ASUS43 KFSD 100110
RWRSD

WEATHER ROUNDUP FOR SOUTH DAKOTA
NATIONAL WEATHER SERVICE SIOUX FALLS SD
800 PM CDT WED JUL 09 2014

NOTE: "FAIR" INDICATES FEW OR NO CLOUDS BELOW 12,000 FEET WITH NO
SIGNIFICANT WEATHER AND/OR OBSTRUCTIONS TO VISIBILITY.


SDZ001>005-009-010-012>017-100200-
NORTHWEST AND NORTH CENTRAL SOUTH DAKOTA

CITY           SKY/WX    TMP DP  RH WIND       PRES   REMARKS
BUFFALO          N/A     77  54  44 SE15      29.88F
FAITH            N/A     77  56  48 SE15      29.96F
MOBRIDGE       SUNNY     79  54  41 SE3       29.93F HAZE
$$

SDZ012>016-024>037-041>051-057-063-072>074-100200-
SOUTHWEST AND SOUTH CENTRAL SOUTH DAKOTA

CITY           SKY/WX    TMP DP  RH WIND       PRES   REMARKS
RAPID CTY ARPT SUNNY     75  57  53 SE13      29.97S
PIERRE         MOSUNNY   78  55  44 S10       29.92F
CUSTER         SUNNY     68  55  63 E12       30.09S
ELLSWORTH AFB  SUNNY     76  57  52 SE10      29.97F
PHILIP         SUNNY     77  53  43 SE8       29.94F
PINE RIDGE     SUNNY     76  61  59 E15       29.94F
WINNER         FAIR      72  56  57 SE10      29.96F
$$

SDZ004>011-016>023-039-040-100200-
NORTHEAST SOUTH DAKOTA

CITY           SKY/WX    TMP DP  RH WIND       PRES   REMARKS
ABERDEEN       SUNNY     73  57  57 E6        29.97F
WATERTOWN      SUNNY     74  52  46 N5        30.00S
SISSETON         N/A     74  57  55 E5        29.98S
$$

SDZ017-020-022-023-036>040-048>070-100200-
SOUTHEAST SOUTH DAKOTA

CITY           SKY/WX    TMP DP  RH WIND       PRES   REMARKS
SIOUX FALLS    MOSUNNY   78  58  49 N5        29.97F
HURON          SUNNY     78  57  48 NE8       29.95F HAZE
CHAMBERLAIN    SUNNY     75  59  57 S5        29.95S
MITCHELL       SUNNY     78  61  55 SE7       29.96S HAZE
YANKTON        SUNNY     75  57  53 SW10      29.98S
$$

ABBREVIATIONS USED IN REMARKS
   TC - TEMPERATURE IN CELSIUS
  WCI - WIND CHILL INDEX
   HX - HEAT INDEX
  VSB - VISIBILITY




USA.gov is the U.S. government's official web portal to all federal, state and local government web resources and services.